Regional Weather Roundup
Issued by NWS Cleveland, OH

Home | Current Version | Previous Version | Text Only | Print | Product List | Glossary On
Versions: 1 2 3 4 5 6 7 8 9 10 11 12 13 14 15 16 17 18 19 20 21 22 23 24 25 26 27 28 29 30 31 32 33 34 35 36 37 38 39 40 41 42 43 44 45 46 47 48 49 50
000
ASUS41 KCLE 251902
RWRCLE
OHIO REGIONAL WEATHER ROUNDUP
NATIONAL WEATHER SERVICE CLEVELAND, OH
300 PM EDT SAT APR 25 2015

NOTE: "FAIR" INDICATES FEW OR NO CLOUDS BELOW 12,000 FEET WITH NO
SIGNIFICANT WEATHER AND/OR OBSTRUCTIONS TO VISIBILITY.

OHZ001>008-015>018-024>027-034-035-043-044-252000-
   NORTHWEST OHIO

CITY           SKY/WX    TMP DP  RH WIND       PRES   REMARKS
DEFIANCE       CLOUDY    48  40  73 E7        29.79S
FINDLAY        CLOUDY    50  38  63 E12       29.77F
TOLEDO EXPRESS CLOUDY    47  34  60 E16G22    29.80F
TOLEDO EXEC    CLOUDY    47  29  49 E16       29.82F
LIMA           RAIN      45  39  79 E10       29.75F
$$

OHZ009>014-019>023-028>033-038-089-252000-
   NORTHEAST OHIO

CITY           SKY/WX    TMP DP  RH WIND       PRES   REMARKS
CLE-HOPKINS    MOSUNNY   49  26  41 NE17      29.82F
CLE-LAKEFRONT  FAIR      46  29  51 NE21G28   29.80F
CUY CO. ARPT   PTSUNNY   52  25  35 NE17      29.81F
LORAIN-ELYRIA  PTSUNNY   49  28  44 E14       29.79F
ASHTABULA      CLOUDY    48  24  39 N8        29.84F
AKRON-CANTON   CLOUDY    50  29  44 E8        29.78F
WOOSTER        PTSUNNY   48  33  56 E12       29.77F
MANSFIELD      CLOUDY    48  36  63 NE12      29.77F
YOUNGSTOWN     CLOUDY    51  20  29 NE6       29.79F
$$

OHZ042-051>053-060>062-070>072-077>081-252000-
  SOUTHWEST OHIO

CITY           SKY/WX    TMP DP  RH WIND       PRES   REMARKS
CINC-COVINGTON HVY RAIN  47  45  93 NE15      29.63F FOG
CINC-LUNKEN    LGT RAIN  46  44  93 NE12      29.67F FOG
HAMILTON       RAIN      44  44 100 E13       29.68F FOG
DAYTON         RAIN      42  40  92 E17       29.67F FOG
WRIGHT-PAT AFB HVY RAIN  42  41  93 NE13      29.71R FOG
DAYTON GENERAL RAIN      40  39  97 E10       29.69R FOG
WILMINGTON     LGT RAIN  40  36  86 E14G22    29.67F FOG
$$

OHZ036-037-039>041-045>050-054>059-063>069-073>076-082>088-252000-
  CENTRAL AND SOUTHEAST OHIO

CITY           SKY/WX    TMP DP  RH WIND       PRES   REMARKS
COLUMBUS       LGT RAIN  44  38  79 E9        29.72F
OSU AIRPORT    LGT RAIN  45  37  73 E9        29.73F
BOLTON FIELD   LGT RAIN  45  39  81 E8        29.72F
RICKENBACK AFB NOT AVBL
NEWARK         LGT RAIN  46  39  76 E7        29.74F
MARION         CLOUDY    51  36  56 E13       29.75F
LANCASTER      LGT RAIN  47  37  68 E9        29.72F
ZANESVILLE     LGT RAIN  46  38  73 E7        29.75F
NEW PHILLY     CLOUDY    55  32  41 E7        29.76F
$$


USA.gov is the U.S. government's official web portal to all federal, state and local government web resources and services.